Content
SEND FEEDBACK

Daily
Averages
Monthly
Summary
Russia

PERM, RUSSIA


Home > Europe > Russia
Elevation: 564 feet     Latitude: 58 01N     Longitude: 056 18E

WEATHER
 
SELECT A DAY
Number of Records: 166,707;   Date Range: 1/29/98 - 10/19/14
 
SHARE

PRINT THIS DATA

[ ← Previous Day ]
WEATHER ALMANAC - JANUARY 31, 2013
[ Next Day → ]
[ °C ]   °F
Weather ElementAverageHighLow
Temperature11.8 °F21.2 °F (3:00 pm)3.2 °F (8:00 pm)
Dewpoint-0.3 °F3.2 °F (12:30 am)-4 °F (8:00 pm)
Humidity59 %78 % (9:00 pm)42 % (3:00 pm)
Barometer30.17 in30.18 in (12:30 am)30.12 in (10:00 pm)
Wind Speed6.5 mph13.4 mph (2:30 am)
Weather ElementAverage
Wind DirectionSSE (169.1 °)

Weather ElementTotal
Precipitation---
Heating Degree Days52.8 (Base 65)
Averaged from 47 records on January 31, 2013
WEATHER CONDITIONS BREAKOUT
WIND DIRECTION BREAKOUT
WEATHER BY HOUR - JANUARY 31, 2013
[ °C ]   °F
Local TimeTemperatureDewpointHumidityBarometerVisibilityWind DirectionWind SpeedGust SpeedPrecipitationEventsConditions
12:30 AM12.2 °F3.2 °F67 %30.18 inSW (220°)11.2 mphClear
1:00 AM12.2 °F1.4 °F62 %30.18 inSSW (210°)11.2 mphClear
1:30 AM12.2 °F1.4 °F62 %30.18 inSW (220°)11.2 mphClear
2:00 AM14.0 °F3.2 °F62 %30.18 inSW (220°)11.2 mphClear
2:30 AM15.8 °F1.4 °F53 %30.18 inWSW (240°)13.4 mphClear
3:00 AM14.0 °F1.4 °F57 %30.18 inWSW (240°)13.4 mphClear
3:30 AM14.0 °F1.4 °F57 %30.18 inSW (230°)11.2 mphClear
4:00 AM14.0 °F1.4 °F57 %30.18 inSW (230°)8.9 mphClear
4:30 AM12.2 °F-0.4 °F57 %30.18 inWSW (240°)11.2 mphClear
5:00 AM12.2 °F-0.4 °F57 %30.18 inSW (230°)4.5 mphClear
5:30 AM12.2 °F-0.4 °F57 %30.18 inSW (230°)8.9 mphClear
6:00 AM14.0 °F-0.4 °F53 %30.18 inWSW (240°)6.7 mphClear
6:30 AM14.0 °F-0.4 °F53 %30.18 inWest (260°)4.5 mphClear
7:00 AM14.0 °F-0.4 °F53 %30.18 inWSW (240°)6.7 mphClear
7:30 AM12.2 °F-0.4 °F57 %30.18 inSW (230°)6.7 mphClear
8:00 AM12.2 °F1.4 °F62 %30.18 inSW (220°)8.9 mphClear
8:30 AM12.2 °F1.4 °F62 %30.18 inSW (230°)6.7 mphClear
9:00 AM12.2 °F1.4 °F62 %30.18 inSSW (210°)6.7 mphClear
9:30 AM12.2 °F1.4 °F62 %30.18 inSW (230°)11.2 mphClear
10:00 AM10.4 °F-0.4 °F62 %30.18 inWSW (240°)6.7 mphClear
10:30 AM8.6 °F-2.2 °F62 %30.18 inVariable2.2 mphClear
11:00 AM10.4 °F-2.2 °F57 %30.18 inSSW (210°)6.7 mphClear
11:30 AM8.6 °F-2.2 °F62 %30.18 inSSW (210°)8.9 mphClear
12:00 PM10.4 °F-2.2 °F57 %30.18 inSW (220°)4.5 mphClear
12:30 PM10.4 °F-2.2 °F57 %30.18 inSW (220°)4.5 mphClear
1:00 PM12.2 °F-0.4 °F57 %30.18 inSW (220°)6.7 mphClear
1:30 PM15.8 °F-0.4 °F49 %30.18 inSW (220°)2.2 mphClear
2:00 PM17.6 °F-0.4 °F45 %30.18 inVariable2.2 mphClear
2:30 PM19.4 °F1.4 °F46 %30.18 inVariable2.2 mphClear
3:00 PM21.2 °F1.4 °F42 %30.18 inVariable2.2 mphClear
3:30 PM19.4 °F1.4 °F46 %30.18 inVariable2.2 mphClear
4:00 PM19.4 °F3.2 °F49 %30.18 inSSE (160°)4.5 mphClear
4:30 PM17.6 °F1.4 °F49 %30.18 inSSW (210°)8.9 mphClear
5:00 PM15.8 °F-0.4 °F49 %30.18 inSW (220°)4.5 mphClear
5:30 PM15.8 °F-0.4 °F49 %30.18 inSW (230°)6.7 mphClear
6:00 PM12.2 °F-2.2 °F53 %30.18 inSE (130°)4.5 mphClear
6:30 PM12.2 °F-2.2 °F53 %30.18 inSE (130°)4.5 mphClear
7:00 PM6.8 °F-2.2 °F67 %30.18 inESE (110°)6.7 mphClear
7:30 PM6.8 °F-2.2 °F67 %30.18 inESE (120°)4.5 mphClear
8:00 PM3.2 °F-4.0 °F72 %30.15 inSE (140°)6.7 mphClear
8:30 PM5.0 °F-2.2 °F72 %30.15 inEast (100°)4.5 mphClear
9:00 PM5.0 °F-0.4 °F78 %30.15 inVariable2.2 mphClear
9:30 PM6.8 °F-2.2 °F67 %30.15 inESE (120°)4.5 mphClear
10:00 PM3.2 °F-2.2 °F78 %30.12 inESE (110°)4.5 mphClear
10:30 PM5.0 °F-2.2 °F72 %30.12 inSE (130°)4.5 mphClear
11:00 PM5.0 °F-2.2 °F72 %30.12 inSE (130°)6.7 mphClear
11:30 PM3.2 °F-4.0 °F72 %30.12 inVariable2.2 mphClear
Hourly data recorded from USPP, located miles away from Perm, Russia







STORIES FROM OUR PARTNERS